• In Deutschland
  • Länderverzeichnis
  • Für 7 Tage
  • Wassertemperatur
  • Satellitenkarten
  • Wetterkarte
  • Widgets
  • user-avatar
    Anmelden

    Stündliche Wetter Willich

    Heute, 15 August, Mittwoch

    Zeit Temperatur Niederschläge Wind Luftdruck Luftfeuchtigkeit
    00:00 +18°C° 0 mm 1 m/S 760 mmHg 78%
    01:00 +17°C° 0 mm 2 m/S 760 mmHg 79%
    02:00 +17°C° 0 mm 2 m/S 760 mmHg 79%
    03:00 +17°C° 0 mm 2 m/S 760 mmHg 80%
    04:00 +17°C° 0 mm 2 m/S 760 mmHg 79%
    05:00 +18°C° 0 mm 3 m/S 760 mmHg 78%
    06:00 +18°C° 0 mm 3 m/S 760 mmHg 78%
    07:00 +19°C° 0 mm 3 m/S 760 mmHg 74%
    08:00 +20°C° 0 mm 3 m/S 760 mmHg 71%
    09:00 +22°C° 0 mm 3 m/S 760 mmHg 68%
    10:00 +24°C° 0 mm 3 m/S 760 mmHg 64%
    11:00 +25°C° 0 mm 3 m/S 760 mmHg 60%
    12:00 +26°C° 0 mm 3 m/S 760 mmHg 56%
    13:00 +26°C° 0 mm 3 m/S 760 mmHg 55%
    14:00 +27°C° 0 mm 3 m/S 760 mmHg 55%
    15:00 +27°C° 0 mm 3 m/S 760 mmHg 54%
    16:00 +26°C° 0 mm 3 m/S 760 mmHg 58%
    17:00 +25°C° 0 mm 3 m/S 760 mmHg 61%
    18:00 +25°C° 0 mm 2 m/S 759 mmHg 65%
    19:00 +24°C° 0 mm 2 m/S 760 mmHg 69%
    20:00 +21°C° 0 mm 2 m/S 760 mmHg 74%
    21:00 +20°C° 0 mm 2 m/S 760 mmHg 79%
    22:00 +20°C° 0 mm 2 m/S 760 mmHg 81%
    23:00 +19°C° 0 mm 2 m/S 760 mmHg 83%

    Morgen, 16 August, Donnerstag

    Zeit Temperatur Niederschläge Wind Luftdruck Luftfeuchtigkeit
    00:00 +19°C° 0 mm 2 m/S 760 mmHg 85%
    01:00 +18°C° 0 mm 2 m/S 760 mmHg 86%
    02:00 +18°C° 0 mm 2 m/S 759 mmHg 87%
    03:00 +18°C° 0 mm 2 m/S 759 mmHg 87%
    04:00 +18°C° 0 mm 2 m/S 759 mmHg 85%
    05:00 +19°C° 0 mm 2 m/S 759 mmHg 82%
    06:00 +19°C° 0 mm 2 m/S 759 mmHg 80%
    07:00 +21°C° 0 mm 2 m/S 759 mmHg 72%
    08:00 +24°C° 0 mm 3 m/S 758 mmHg 63%
    09:00 +26°C° 0 mm 3 m/S 758 mmHg 55%
    10:00 +27°C° 0 mm 3 m/S 758 mmHg 50%
    11:00 +28°C° 0 mm 3 m/S 757 mmHg 45%
    12:00 +30°C° 0 mm 3 m/S 757 mmHg 40%
    13:00 +30°C° 0 mm 3 m/S 757 mmHg 39%
    14:00 +31°C° 0 mm 3 m/S 756 mmHg 37%
    15:00 +31°C° 0 mm 3 m/S 756 mmHg 36%
    16:00 +30°C° 0 mm 3 m/S 756 mmHg 40%
    17:00 +29°C° 0 mm 2 m/S 756 mmHg 45%
    18:00 +28°C° 0 mm 2 m/S 756 mmHg 49%
    19:00 +26°C° 0,2 mm 2 m/S 756 mmHg 57%
    20:00 +24°C° 0,2 mm 2 m/S 756 mmHg 65%
    21:00 +21°C° 0,2 mm 3 m/S 757 mmHg 73%
    22:00 +21°C° 0,7 mm 2 m/S 757 mmHg 78%
    23:00 +20°C° 0,7 mm 2 m/S 757 mmHg 82%

    übermorgen, 17 August, Freitag

    Zeit Temperatur Niederschläge Wind Luftdruck Luftfeuchtigkeit
    00:00 +19°C° 0,7 mm 2 m/S 757 mmHg 87%
    01:00 +19°C° 1,1 mm 2 m/S 757 mmHg 88%
    02:00 +19°C° 1,1 mm 2 m/S 757 mmHg 90%
    03:00 +19°C° 1,1 mm 2 m/S 757 mmHg 91%
    04:00 +19°C° 1,1 mm 2 m/S 757 mmHg 91%
    05:00 +19°C° 1,1 mm 2 m/S 757 mmHg 91%
    06:00 +19°C° 1,1 mm 2 m/S 758 mmHg 90%
    07:00 +19°C° 0,3 mm 2 m/S 758 mmHg 86%
    08:00 +20°C° 0,3 mm 2 m/S 758 mmHg 81%
    09:00 +20°C° 0,3 mm 2 m/S 759 mmHg 76%
    10:00 +21°C° 0 mm 2 m/S 759 mmHg 69%
    11:00 +23°C° 0 mm 2 m/S 759 mmHg 61%
    12:00 +24°C° 0 mm 3 m/S 759 mmHg 53%
    13:00 +24°C° 0 mm 3 m/S 759 mmHg 52%
    14:00 +24°C° 0 mm 3 m/S 760 mmHg 51%
    15:00 +24°C° 0 mm 3 m/S 760 mmHg 50%
    16:00 +24°C° 0 mm 3 m/S 760 mmHg 51%
    17:00 +23°C° 0 mm 2 m/S 760 mmHg 53%
    18:00 +21°C° 0 mm 2 m/S 760 mmHg 55%
    19:00 +20°C° 0 mm 2 m/S 761 mmHg 57%
    20:00 +19°C° 0 mm 2 m/S 761 mmHg 60%
    21:00 +18°C° 0 mm 2 m/S 762 mmHg 62%
    22:00 +17°C° 0 mm 2 m/S 762 mmHg 64%
    23:00 +18°C° 0 mm 1 m/S 762 mmHg 66%

    18 August, Samstag

    Zeit Temperatur Niederschläge Wind Luftdruck Luftfeuchtigkeit
    00:00 +16°C° 0 mm 1 m/S 762 mmHg 68%
    01:00 +16°C° 0 mm 1 m/S 762 mmHg 70%
    02:00 +15°C° 0 mm 1 m/S 762 mmHg 71%
    03:00 +15°C° 0 mm 2 m/S 762 mmHg 73%
    04:00 +15°C° 0 mm 2 m/S 762 mmHg 72%
    05:00 +16°C° 0 mm 2 m/S 762 mmHg 72%
    06:00 +16°C° 0 mm 2 m/S 763 mmHg 72%
    07:00 +18°C° 0 mm 3 m/S 763 mmHg 66%
    08:00 +19°C° 0 mm 3 m/S 763 mmHg 60%
    09:00 +21°C° 0 mm 3 m/S 763 mmHg 54%
    10:00 +22°C° 0 mm 4 m/S 762 mmHg 50%
    11:00 +23°C° 0 mm 4 m/S 762 mmHg 46%
    12:00 +25°C° 0 mm 4 m/S 762 mmHg 42%
    13:00 +26°C° 0 mm 4 m/S 762 mmHg 44%
    14:00 +26°C° 0 mm 4 m/S 762 mmHg 46%
    15:00 +26°C° 0 mm 4 m/S 762 mmHg 47%
    16:00 +25°C° 0 mm 4 m/S 762 mmHg 53%
    17:00 +24°C° 0 mm 3 m/S 762 mmHg 58%
    18:00 +22°C° 0 mm 3 m/S 762 mmHg 63%
    19:00 +21°C° 0 mm 3 m/S 763 mmHg 67%
    20:00 +20°C° 0 mm 2 m/S 763 mmHg 71%
    21:00 +19°C° 0 mm 2 m/S 763 mmHg 75%
    22:00 +19°C° 0 mm 2 m/S 763 mmHg 77%
    23:00 +18°C° 0 mm 2 m/S 764 mmHg 78%

    19 August, Sonntag

    Zeit Temperatur Niederschläge Wind Luftdruck Luftfeuchtigkeit
    00:00 +19°C° 0 mm 1 m/S 764 mmHg 80%
    01:00 +18°C° 0 mm 1 m/S 764 mmHg 82%
    02:00 +18°C° 0 mm 1 m/S 764 mmHg 83%
    03:00 +18°C° 0 mm 1 m/S 764 mmHg 85%
    04:00 +18°C° 0 mm 1 m/S 764 mmHg 83%
    05:00 +17°C° 0 mm 2 m/S 764 mmHg 82%
    06:00 +18°C° 0 mm 2 m/S 764 mmHg 81%
    07:00 +19°C° 0 mm 2 m/S 764 mmHg 74%
    08:00 +21°C° 0 mm 2 m/S 764 mmHg 68%
    09:00 +23°C° 0 mm 2 m/S 764 mmHg 61%
    10:00 +24°C° 0 mm 2 m/S 764 mmHg 57%
    11:00 +25°C° 0 mm 2 m/S 764 mmHg 54%
    12:00 +26°C° 0 mm 2 m/S 763 mmHg 50%
    13:00 +27°C° 0 mm 2 m/S 763 mmHg 49%
    14:00 +27°C° 0 mm 2 m/S 763 mmHg 48%
    15:00 +28°C° 0 mm 2 m/S 763 mmHg 47%
    16:00 +27°C° 0 mm 2 m/S 762 mmHg 51%
    17:00 +26°C° 0 mm 2 m/S 762 mmHg 55%
    18:00 +25°C° 0 mm 2 m/S 762 mmHg 59%
    19:00 +24°C° 0 mm 2 m/S 763 mmHg 63%
    20:00 +23°C° 0 mm 2 m/S 763 mmHg 67%
    21:00 +22°C° 0 mm 1 m/S 763 mmHg 71%
    22:00 +21°C° 0 mm 2 m/S 763 mmHg 74%
    23:00 +21°C° 0 mm 2 m/S 763 mmHg 77%

    20 August, Montag

    Zeit Temperatur Niederschläge Wind Luftdruck Luftfeuchtigkeit
    00:00 +20°C° 0 mm 2 m/S 763 mmHg 81%
    01:00 +20°C° 0 mm 2 m/S 762 mmHg 83%
    02:00 +19°C° 0 mm 2 m/S 762 mmHg 86%
    03:00 +19°C° 0 mm 2 m/S 762 mmHg 88%
    04:00 +19°C° 0 mm 2 m/S 762 mmHg 87%
    05:00 +19°C° 0 mm 2 m/S 762 mmHg 85%
    06:00 +19°C° 0 mm 3 m/S 762 mmHg 84%
    07:00 +20°C° 0 mm 3 m/S 762 mmHg 80%
    08:00 +21°C° 0 mm 3 m/S 762 mmHg 76%
    09:00 +22°C° 0 mm 3 m/S 762 mmHg 72%
    10:00 +22°C° 0 mm 3 m/S 762 mmHg 71%
    11:00 +24°C° 0 mm 3 m/S 762 mmHg 70%
    12:00 +24°C° 0 mm 3 m/S 762 mmHg 69%
    13:00 +24°C° 0 mm 3 m/S 762 mmHg 67%
    14:00 +25°C° 0 mm 3 m/S 762 mmHg 66%
    15:00 +25°C° 0 mm 3 m/S 762 mmHg 65%
    16:00 +25°C° 0 mm 3 m/S 762 mmHg 67%
    17:00 +24°C° 0 mm 2 m/S 762 mmHg 69%
    18:00 +24°C° 0 mm 2 m/S 762 mmHg 71%
    19:00 +23°C° 0 mm 2 m/S 762 mmHg 74%
    20:00 +21°C° 0 mm 2 m/S 762 mmHg 78%
    21:00 +21°C° 0 mm 1 m/S 762 mmHg 81%
    22:00 +21°C° 0 mm 1 m/S 762 mmHg 83%
    23:00 +21°C° 0 mm 1 m/S 762 mmHg 84%
    Mehr zeigen